WetterOnline ( https://www.wetteronline.de )

Wetter aktuell Sietow

Aktuelles Wetter: Goldberg (58m)

6-stündlich | Neueste Meldungen
Ortszeit Temperatur Wetter
Fr, 27.11. 1:00 3.2° C Nebel
Do, 26.11. 19:00 5.4° C bedeckt
Do, 26.11. 13:00 7.5° C bedeckt
Do, 26.11. 7:00 2.9° C bedeckt
Do, 26.11. 1:00 2.5° C Nebel
Mi, 25.11. 19:00 2.0° C Nebel
Mi, 25.11. 13:00 1.0° C bedeckt
Mi, 25.11. 7:00 0.8° C Nebel
Ortszeit Temperatur Wetter
Fr, 27.11. 4:10 1.6° C Nebel
Fr, 27.11. 4:00 2.0° C Nebel
Fr, 27.11. 3:50 2.0° C Nebel
Fr, 27.11. 3:40 2.0° C Nebel
Fr, 27.11. 3:30 2.3° C Nebel
Fr, 27.11. 3:20 2.3° C Nebel
Fr, 27.11. 3:00 2.5° C Nebel
Fr, 27.11. 2:30 2.8° C Nebel
Fr, 27.11. 2:00 2.8° C Nebel
Fr, 27.11. 1:30 3.0° C Nebel
Fr, 27.11. 1:00 3.2° C Nebel
Ortszeit Relative Feuchte Sichtweite
Fr, 27.11. 1:00 99% 100 m
Do, 26.11. 19:00 99% 5.0 km
Do, 26.11. 13:00 99% 1.5 km
Do, 26.11. 7:00 98% 2.2 km
Do, 26.11. 1:00 99% 0.5 km
Mi, 25.11. 19:00 100% 0.7 km
Mi, 25.11. 13:00 99% 1.3 km
Mi, 25.11. 7:00 100% 0.2 km
Ortszeit Relative Feuchte Sichtweite
Fr, 27.11. 4:10 100% -
Fr, 27.11. 4:00 100% 100 m
Fr, 27.11. 3:50 100% -
Fr, 27.11. 3:40 100% -
Fr, 27.11. 3:30 99% 100 m
Fr, 27.11. 3:20 99% -
Fr, 27.11. 3:00 100% 100 m
Fr, 27.11. 2:30 100% 100 m
Fr, 27.11. 2:00 100% 100 m
Fr, 27.11. 1:30 100% 100 m
Fr, 27.11. 1:00 99% 100 m
Ortszeit Niederschlagsmenge Niederschlagsart
Fr, 27.11. 1:00 0.0 l/m2 in 6 Std. -
Do, 26.11. 19:00 0.2 l/m2 in 12 Std. Sprühregen
Do, 26.11. 13:00 0.2 l/m2 in 6 Std. Regen
Do, 26.11. 7:00 0.0 l/m2 in 12 Std. -
Do, 26.11. 1:00 0.0 l/m2 in 6 Std. -
Mi, 25.11. 19:00 0.0 l/m2 in 12 Std. -
Mi, 25.11. 13:00 0.0 l/m2 in 6 Std. -
Mi, 25.11. 7:00 0.0 l/m2 in 12 Std. -
Ortszeit Niederschlagsmenge Niederschlagsart
Fr, 27.11. 4:10 keine Meldung -
Fr, 27.11. 4:00 0.0 l/m2 in 1 Std. -
Fr, 27.11. 3:50 keine Meldung -
Fr, 27.11. 3:40 keine Meldung -
Fr, 27.11. 3:30 0.0 l/m2 in 1 Std. -
Fr, 27.11. 3:20 keine Meldung -
Fr, 27.11. 3:00 0.0 l/m2 in 1 Std. -
Fr, 27.11. 2:30 0.0 l/m2 in 1 Std. -
Fr, 27.11. 2:00 0.0 l/m2 in 1 Std. -
Fr, 27.11. 1:30 0.0 l/m2 in 1 Std. -
Fr, 27.11. 1:00 0.0 l/m2 in 1 Std. -
Ortszeit Stärke Spitze Richtung
km/h Bft. km/h Grad Sektor
Fr, 27.11. 1:00 7 2 11 260° W
Do, 26.11. 19:00 7 2 25 270° W
Do, 26.11. 13:00 17 3 28 250° W
Do, 26.11. 7:00 7 2 14 190° S
Do, 26.11. 1:00 9 2 24 200° S
Mi, 25.11. 19:00 14 3 29 180° S
Mi, 25.11. 13:00 11 2 22 160° S
Mi, 25.11. 7:00 9 2 19 160° S
Ortszeit Stärke Spitze Richtung
km/h Bft. km/h Grad Sektor
Fr, 27.11. 4:10 4 1 - 190° S
Fr, 27.11. 4:00 4 1 4 230° SW
Fr, 27.11. 3:50 4 1 - 230° SW
Fr, 27.11. 3:40 2 1 - 240° SW
Fr, 27.11. 3:30 0 0 4 - -
Fr, 27.11. 3:20 0 0 - 180° S
Fr, 27.11. 3:00 0 0 4 - -
Fr, 27.11. 2:30 0 0 4 - -
Fr, 27.11. 2:00 2 1 7 240° SW
Fr, 27.11. 1:30 6 1 7 240° SW
Fr, 27.11. 1:00 7 2 7 260° W
Ortszeit Untergrenze Bedeckung Gattung
total tief tief mittel hoch
Fr, 27.11. 1:00 <30 m 8/8 0/8 - - -
Do, 26.11. 19:00 4200 m 8/8 8/8 - - -
Do, 26.11. 13:00 60 m 8/8 8/8 - - -
Do, 26.11. 7:00 120 m 8/8 8/8 - - -
Do, 26.11. 1:00 30 m 8/8 8/8 - - -
Mi, 25.11. 19:00 30 m 8/8 8/8 - - -
Mi, 25.11. 13:00 30 m 8/8 8/8 - - -
Mi, 25.11. 7:00 <30 m 8/8 0/8 - - -
Ortszeit Bedeckungsgrad in Achtel und Wolkenuntergrenze
Fr, 27.11. 4:10 8(<30m)
Fr, 27.11. 4:00 8(<30m)
Fr, 27.11. 3:50 8(<30m)
Fr, 27.11. 3:40 8(<30m)
Fr, 27.11. 3:30 8(<30m)
Fr, 27.11. 3:20 8(<30m)
Fr, 27.11. 3:00 8(<30m)
Fr, 27.11. 2:30 8(<30m)
Fr, 27.11. 2:00 8(<30m)
Fr, 27.11. 1:30 8(<30m)
Fr, 27.11. 1:00 8(<30m)
Ortszeit Luftdruck NN (hPa) Tendenz (hPa in 3 Std.)
Fr, 27.11. 1:00 1021 + 0,4
Do, 26.11. 19:00 1020 + 1,1
Do, 26.11. 13:00 1018 - 0,1
Do, 26.11. 7:00 1018 - 0,3
Do, 26.11. 1:00 1018 - 0,4
Mi, 25.11. 19:00 1019 + 0,4
Mi, 25.11. 13:00 1019 - 0,8
Mi, 25.11. 7:00 1019 - 0,3
Ortszeit Luftdruck NN (hPa) Tendenz (hPa in 3 Std.)
Fr, 27.11. 4:10 1021 keine Meldung
Fr, 27.11. 4:00 1021 + 0,1
Fr, 27.11. 3:50 1021 keine Meldung
Fr, 27.11. 3:40 1021 keine Meldung
Fr, 27.11. 3:30 1021 + 0,4
Fr, 27.11. 3:20 1021 keine Meldung
Fr, 27.11. 3:00 1021 + 0,3
Fr, 27.11. 2:30 1021 + 0,4
Fr, 27.11. 2:00 1021 + 0,1
Fr, 27.11. 1:30 1021 + 0,4
Fr, 27.11. 1:00 1021 + 0,4
Ortszeit Schneehöhe (cm)
Fr, 27.11. 1:00 0
Do, 26.11. 19:00 0
Do, 26.11. 13:00 0
Do, 26.11. 7:00 0
Do, 26.11. 1:00 0
Mi, 25.11. 19:00 0
Mi, 25.11. 13:00 0
Mi, 25.11. 7:00 0
Ortszeit Schneehöhe (cm)
Fr, 27.11. 4:10 0
Fr, 27.11. 4:00 0
Fr, 27.11. 3:50 0
Fr, 27.11. 3:40 0
Fr, 27.11. 3:30 0
Fr, 27.11. 3:20 0
Fr, 27.11. 3:00 0
Fr, 27.11. 2:30 0
Fr, 27.11. 2:00 0
Fr, 27.11. 1:30 0
Fr, 27.11. 1:00 0
Link zu dieser Seite / Seite empfehlen

Das Wetter in ...